Flag for Japan Weather past 2 weeks in Nagano, Japan

Now
53 °F

Cool.


Feels Like: 51 °F
Forecast: 46 / 67 °F
Wind: 7 mph from Southwest

Location: Nagano

Current Time: Apr 19, 2015 at 8:20:59 PM

Latest Report: Apr 19, 2015 at 7:00 PM


Visibility: N/A

Pressure: 29.99 "Hg

Humidity: 77%

Dew point: 46 °F

Location of NaganoLocation

Historic Weather in Nagano — Graph

°F

Nagano temperature yesterday

Maximum temperature yesterday: 68 °F (at 1:00 PM)
Minimum temperature yesterday: 34 °F (at 4:00 AM)
Average temperature yesterday: 50 °F

Past Weeks' High & Low Weather Summary

 TemperatureHumidityPressure
High68 °F (Apr 18, 1:00 PM)97% (Apr 11, 6:00 AM)30.50 "Hg (Apr 11, 6:00 AM)
Low33 °F (Apr 8, 6:00 AM)13% (Apr 18, 5:00 PM)29.50 "Hg (Apr 15, 12:00 PM)
Average48 °F73%30.07 "Hg
* Reported Apr 4 7:00 PM — Apr 19 7:00 PM, Nagano, Weather by CustomWeather, © 2015

Note: Actual official high and low records may vary slightly from our data, if they occured in-between our weather recording intervals... More about our weather records

Advertising

Nagano weather history for previous 24 hours

 ConditionsComfort  
Time TempWeatherWind HumidityBarometerVisibility
7:00 PM
Sun, Apr 19
53 °FCool.7 mph77%29.99 "HgN/A
6:00 PM53 °FCool.7 mph75%30.00 "HgN/A
5:00 PM53 °FCool.10 mph82%30.01 "HgN/A
4:00 PM56 °FCool.10 mph68%30.00 "HgN/A
3:00 PM56 °FLight rain. Overcast.10 mph70%29.99 "Hg6 mi
2:00 PM60 °FRefreshingly cool.6 mph51%29.98 "HgN/A
1:00 PM57 °FRefreshingly cool.3 mph49%30.01 "HgN/A
11:00 AM54 °FCool.2 mph47%30.03 "HgN/A
10:00 AM53 °FCool.1 mph48%30.06 "HgN/A
9:00 AM52 °FOvercast.2 mph52%30.06 "Hg12 mi
8:00 AM47 °FCool.2 mph57%30.10 "HgN/A
7:00 AM43 °FQuite cool.1 mph71%30.13 "HgN/A
6:00 AM40 °FQuite cool.2 mph69%30.13 "HgN/A
5:00 AM39 °FChilly.2 mph77%30.12 "HgN/A
4:00 AM39 °FChilly.3 mph74%30.11 "HgN/A
3:00 AM40 °FPassing clouds.1 mph68%30.10 "Hg19 mi
2:00 AM43 °FQuite cool.1 mph63%30.11 "HgN/A
1:00 AM43 °FQuite cool.2 mph64%30.11 "HgN/A
12:00 AM44 °FQuite cool.1 mph58%30.12 "HgN/A
11:00 PM
Sat, Apr 18
46 °FCool.3 mph55%30.10 "HgN/A
10:00 PM47 °FCool.3 mph55%30.09 "HgN/A
9:00 PM51 °FPassing clouds.3 mph43%30.06 "Hg16 mi
8:00 PM51 °FCool.7 mph43%30.03 "HgN/A
Weather by CustomWeather, © 2015

See weather overviewHow to use our weather pages